When you browse on this site, cookies collect data to enhance your experience and personalize the content and advertising you see.
Visit our Privacy Policy to learn more. By continuing to use the site, you agree to this use of cookies and data.
  • Em Portugal
  • Lista de países
  • Para 7 dias
  • Temperatura da água
  • Mapas de satélite
  • Mapa do tempo
  • Widgets de tempo
  • user-avatar
    Iniciar Sessão

    Previsão horária em Namur

    Hoje, 15 Dezembro, Sábado

    Tempo Temperatura Precipitação Vento Pressão Humidade
    00:00 -1°C° 0 mm 1 m/s 758 mmHg 72%
    01:00 -1°C° 0 mm 1 m/s 758 mmHg 72%
    02:00 -1°C° 0 mm 1 m/s 758 mmHg 73%
    03:00 -1°C° 0 mm 1 m/s 757 mmHg 74%
    04:00 -4°C° 0 mm 2 m/s 757 mmHg 74%
    05:00 -4°C° 0 mm 2 m/s 757 mmHg 75%
    06:00 -4°C° 0 mm 2 m/s 757 mmHg 76%
    07:00 -4°C° 0 mm 3 m/s 757 mmHg 73%
    08:00 -4°C° 0 mm 3 m/s 756 mmHg 71%
    09:00 -4°C° 0 mm 4 m/s 756 mmHg 68%
    10:00 -3°C° 0 mm 4 m/s 756 mmHg 64%
    11:00 -2°C° 0 mm 4 m/s 755 mmHg 59%
    12:00 -1°C° 0 mm 4 m/s 755 mmHg 55%
    13:00 -1°C° 0 mm 5 m/s 754 mmHg 56%
    14:00 -1°C° 0 mm 5 m/s 753 mmHg 58%
    15:00 -1°C° 0 mm 5 m/s 753 mmHg 59%
    16:00 -2°C° 0 mm 6 m/s 752 mmHg 59%
    17:00 -2°C° 0 mm 6 m/s 751 mmHg 58%
    18:00 -2°C° 0 mm 7 m/s 751 mmHg 58%
    19:00 -2°C° 0.9 mm 8 m/s 750 mmHg 64%
    20:00 -2°C° 0.9 mm 8 m/s 749 mmHg 71%
    21:00 -2°C° 0.9 mm 8 m/s 748 mmHg 77%
    22:00 -1°C° 2 mm 8 m/s 748 mmHg 81%
    23:00 -1°C° 2 mm 7 m/s 747 mmHg 85%

    Amanhã, 16 Dezembro, Domingo

    Tempo Temperatura Precipitação Vento Pressão Humidade
    00:00 -1°C° 2 mm 7 m/s 747 mmHg 89%
    01:00 -1°C° 0.3 mm 6 m/s 746 mmHg 90%
    02:00 -1°C° 0.3 mm 6 m/s 746 mmHg 92%
    03:00 0°C° 0.3 mm 5 m/s 746 mmHg 93%
    04:00 0°C° 0 mm 5 m/s 746 mmHg 94%
    05:00 0°C° 0 mm 4 m/s 746 mmHg 94%
    06:00 0°C° 0 mm 4 m/s 746 mmHg 95%
    07:00 +1°C° 0 mm 4 m/s 747 mmHg 95%
    08:00 +2°C° 0 mm 3 m/s 747 mmHg 96%
    09:00 +2°C° 0 mm 3 m/s 747 mmHg 96%
    10:00 +2°C° 0.4 mm 3 m/s 747 mmHg 96%
    11:00 +3°C° 0.4 mm 3 m/s 748 mmHg 96%
    12:00 +3°C° 0.4 mm 3 m/s 748 mmHg 96%
    13:00 +3°C° 0.2 mm 3 m/s 748 mmHg 96%
    14:00 +3°C° 0.2 mm 3 m/s 748 mmHg 96%
    15:00 +3°C° 0.2 mm 3 m/s 748 mmHg 96%
    16:00 +3°C° 0 mm 3 m/s 748 mmHg 96%
    17:00 +2°C° 0 mm 3 m/s 748 mmHg 96%
    18:00 +2°C° 0 mm 3 m/s 749 mmHg 96%
    19:00 +2°C° 0 mm 3 m/s 749 mmHg 96%
    20:00 +2°C° 0 mm 3 m/s 749 mmHg 96%
    21:00 +2°C° 0 mm 3 m/s 749 mmHg 95%
    22:00 +2°C° 0 mm 3 m/s 749 mmHg 95%
    23:00 +2°C° 0 mm 3 m/s 749 mmHg 95%

    Depois de amanhã, 17 Dezembro, Segunda-feira

    Tempo Temperatura Precipitação Vento Pressão Humidade
    00:00 +2°C° 0 mm 3 m/s 749 mmHg 95%
    01:00 +2°C° 0.1 mm 3 m/s 749 mmHg 95%
    02:00 +3°C° 0.1 mm 4 m/s 748 mmHg 94%
    03:00 +3°C° 0.1 mm 4 m/s 748 mmHg 94%
    04:00 +3°C° 0.4 mm 4 m/s 748 mmHg 93%
    05:00 +3°C° 0.4 mm 4 m/s 749 mmHg 93%
    06:00 +3°C° 0.4 mm 4 m/s 749 mmHg 93%
    07:00 +3°C° 0.5 mm 3 m/s 749 mmHg 93%
    08:00 +3°C° 0.5 mm 3 m/s 750 mmHg 94%
    09:00 +4°C° 0.5 mm 2 m/s 751 mmHg 95%
    10:00 +4°C° 0.2 mm 2 m/s 751 mmHg 95%
    11:00 +3°C° 0.2 mm 3 m/s 752 mmHg 95%
    12:00 +4°C° 0.2 mm 3 m/s 753 mmHg 95%
    13:00 +4°C° 0.1 mm 3 m/s 753 mmHg 95%
    14:00 +4°C° 0.1 mm 3 m/s 754 mmHg 95%
    15:00 +4°C° 0.1 mm 3 m/s 755 mmHg 95%
    16:00 +4°C° 0 mm 3 m/s 755 mmHg 95%
    17:00 +4°C° 0 mm 2 m/s 756 mmHg 95%
    18:00 +3°C° 0 mm 2 m/s 756 mmHg 95%
    19:00 +3°C° 0 mm 2 m/s 757 mmHg 95%
    20:00 +3°C° 0 mm 2 m/s 757 mmHg 95%
    21:00 +2°C° 0 mm 3 m/s 758 mmHg 95%
    22:00 +2°C° 0 mm 3 m/s 758 mmHg 95%
    23:00 +2°C° 0 mm 3 m/s 758 mmHg 95%

    18 Dezembro, Terça-feira

    Tempo Temperatura Precipitação Vento Pressão Humidade
    00:00 +2°C° 0 mm 3 m/s 758 mmHg 96%
    01:00 +2°C° 0 mm 3 m/s 758 mmHg 95%
    02:00 +2°C° 0 mm 3 m/s 758 mmHg 95%
    03:00 +2°C° 0 mm 3 m/s 758 mmHg 95%
    04:00 +1°C° 0 mm 4 m/s 757 mmHg 95%
    05:00 +1°C° 0 mm 4 m/s 757 mmHg 95%
    06:00 +1°C° 0 mm 4 m/s 757 mmHg 94%
    07:00 +1°C° 0 mm 4 m/s 757 mmHg 94%
    08:00 +3°C° 0 mm 4 m/s 757 mmHg 93%
    09:00 +3°C° 0 mm 4 m/s 757 mmHg 92%
    10:00 +2°C° 0 mm 5 m/s 756 mmHg 88%
    11:00 +3°C° 0 mm 5 m/s 755 mmHg 84%
    12:00 +4°C° 0 mm 6 m/s 754 mmHg 80%
    13:00 +4°C° 0 mm 6 m/s 754 mmHg 79%
    14:00 +3°C° 0 mm 6 m/s 753 mmHg 78%
    15:00 +3°C° 0 mm 6 m/s 752 mmHg 77%
    16:00 +3°C° 0 mm 6 m/s 751 mmHg 75%
    17:00 +3°C° 0 mm 6 m/s 751 mmHg 73%
    18:00 +2°C° 0 mm 6 m/s 750 mmHg 72%
    19:00 +2°C° 0 mm 6 m/s 750 mmHg 73%
    20:00 +2°C° 0 mm 6 m/s 750 mmHg 73%
    21:00 +2°C° 0 mm 6 m/s 750 mmHg 74%
    22:00 +2°C° 0 mm 6 m/s 749 mmHg 76%
    23:00 +3°C° 0 mm 6 m/s 749 mmHg 77%

    19 Dezembro, Quarta-feira

    Tempo Temperatura Precipitação Vento Pressão Humidade
    00:00 +3°C° 0 mm 6 m/s 749 mmHg 79%
    01:00 +4°C° 0.4 mm 6 m/s 749 mmHg 82%
    02:00 +4°C° 0.4 mm 6 m/s 749 mmHg 86%
    03:00 +4°C° 0.4 mm 6 m/s 749 mmHg 89%
    04:00 +4°C° 0.1 mm 6 m/s 749 mmHg 90%
    05:00 +6°C° 0.1 mm 5 m/s 749 mmHg 92%
    06:00 +6°C° 0.1 mm 4 m/s 749 mmHg 93%
    07:00 +6°C° 0 mm 4 m/s 750 mmHg 93%
    08:00 +6°C° 0 mm 4 m/s 750 mmHg 94%
    09:00 +5°C° 0 mm 4 m/s 750 mmHg 94%
    10:00 +6°C° 0 mm 4 m/s 750 mmHg 91%
    11:00 +6°C° 0 mm 4 m/s 750 mmHg 88%
    12:00 +7°C° 0 mm 4 m/s 750 mmHg 86%
    13:00 +7°C° 0 mm 4 m/s 750 mmHg 87%
    14:00 +6°C° 0 mm 4 m/s 750 mmHg 89%
    15:00 +7°C° 0 mm 3 m/s 751 mmHg 90%
    16:00 +7°C° 0 mm 3 m/s 751 mmHg 90%
    17:00 +7°C° 0 mm 3 m/s 751 mmHg 91%
    18:00 +7°C° 0 mm 3 m/s 751 mmHg 91%
    19:00 +5°C° 0 mm 3 m/s 751 mmHg 91%
    20:00 +6°C° 0 mm 2 m/s 751 mmHg 91%
    21:00 +6°C° 0 mm 2 m/s 751 mmHg 91%
    22:00 +6°C° 0 mm 2 m/s 751 mmHg 91%
    23:00 +5°C° 0 mm 2 m/s 751 mmHg 92%

    20 Dezembro, Quinta-feira

    Tempo Temperatura Precipitação Vento Pressão Humidade
    00:00 +5°C° 0 mm 2 m/s 752 mmHg 92%
    01:00 +3°C° 0 mm 3 m/s 751 mmHg 93%
    02:00 +3°C° 0 mm 3 m/s 751 mmHg 94%
    03:00 +3°C° 0 mm 3 m/s 751 mmHg 94%
    04:00 +3°C° 0 mm 3 m/s 751 mmHg 94%
    05:00 +3°C° 0 mm 4 m/s 751 mmHg 94%
    06:00 +3°C° 0 mm 4 m/s 751 mmHg 94%
    07:00 +3°C° 0 mm 4 m/s 751 mmHg 93%
    08:00 +2°C° 0 mm 5 m/s 751 mmHg 91%
    09:00 +2°C° 0 mm 5 m/s 751 mmHg 90%
    10:00 +3°C° 0.1 mm 5 m/s 751 mmHg 89%
    11:00 +3°C° 0.1 mm 5 m/s 750 mmHg 88%
    12:00 +3°C° 0.1 mm 6 m/s 750 mmHg 86%
    13:00 +3°C° 1 mm 5 m/s 750 mmHg 88%
    14:00 +3°C° 1 mm 5 m/s 750 mmHg 89%
    15:00 +3°C° 1 mm 5 m/s 749 mmHg 90%
    16:00 +4°C° 0.3 mm 4 m/s 750 mmHg 91%
    17:00 +4°C° 0.3 mm 4 m/s 750 mmHg 92%
    18:00 +4°C° 0.3 mm 3 m/s 750 mmHg 94%
    19:00 +3°C° 0 mm 3 m/s 751 mmHg 94%
    20:00 +3°C° 0 mm 3 m/s 751 mmHg 94%
    21:00 +2°C° 0 mm 3 m/s 751 mmHg 94%
    22:00 +2°C° 0 mm 3 m/s 752 mmHg 95%
    23:00 +2°C° 0 mm 3 m/s 752 mmHg 95%
    Mostrar mais